Weather Roundup
Issued by NWS Chicago, IL

Home | Current Version | Previous Version | Text Only | Print | Product List | Glossary Off
Versions: 1 2 3 4 5 6 7 8 9 10 11 12 13 14 15 16 17 18 19 20 21 22 23 24 25 26 27 28 29 30 31 32 33 34 35 36 37 38 39 40 41 42 43 44 45 46 47 48 49 50

000
NZUS59 KLOT 010621
HRRLOT

CHICAGO AREA WEATHER ROUNDUP
NATIONAL WEATHER SERVICE CHICAGO/ROMEOVILLE IL
100 AM CDT SAT AUG 01 2015

NOTE: "FAIR" INDICATES FEW OR NO CLOUDS BELOW 12,000 FEET WITH NO
SIGNIFICANT WEATHER AND/OR OBSTRUCTIONS TO VISIBILITY.

* THESE STATIONS ARE NOT UNDER NWS QUALITY CONTROL. THEY ALSO MAY NOT
  REPORT WEATHER SUCH AS PRECIPITATION OR FOG.

ILZ005-006-012>014-019>023-010700-
NORTHEAST ILLINOIS

CITY           SKY/WX    TMP DP  RH WIND       PRES   REMARKS
OHARE          CLEAR     69  52  54 W8        29.99R
6HR MIN TEMP:  69; 6HR MAX TEMP:  82;

MIDWAY         CLEAR     72  51  47 W5        29.99R
6HR MIN TEMP:  72; 6HR MAX TEMP:  84;

AURORA         CLEAR     59  54  83 W3        30.01S
6HR MIN TEMP:  58; 6HR MAX TEMP:  79;

LANSING*       CLEAR     64  53  66 W3        29.99S
JOLIET*        CLEAR     67  56  68 CALM      30.01R
WAUKEGAN       CLEAR     64  53  67 W3        29.97S
6HR MIN TEMP:  62; 6HR MAX TEMP:  78;

DUPAGE AIRPORT CLEAR     65  52  62 W5        30.00R
6HR MIN TEMP:  64; 6HR MAX TEMP:  81;

WHEELING       CLEAR     68  51  54 NW5       29.99S
6HR MIN TEMP:  68; 6HR MAX TEMP:  81;

KANKAKEE*      CLEAR     64  60  86 W5        30.02S
MORRIS*        CLEAR     61  57  88 W6        30.01R
LEWIS AIRPORT* CLEAR     64  53  68 W6        30.01S
NORTHERLY IS     N/A     75  51  43 W7          N/A
$$

WIZ051-052-058>065-066-070>072-010700-
SOUTHEAST WISCONSIN

CITY           SKY/WX    TMP DP  RH WIND       PRES   REMARKS
MILWAUKEE      PTCLDY    69  51  52 W5        29.97R
6HR MIN TEMP:  68; 6HR MAX TEMP:  81;

KENOSHA*       CLEAR     63  52  67 NW7       29.98S
RACINE*        CLEAR     66  51  58 W6        29.99S
BURLINGTON     CLEAR     60  51  71 W6        29.98F
WAUKESHA       CLEAR     63  50  63 W7        29.99S
WEST BEND      CLEAR     63  50  63 W7        29.97S
$$

INZ001>003-010>013-019-020-010700-
NORTHWEST INDIANA

CITY           SKY/WX    TMP DP  RH WIND       PRES   REMARKS
GARY*          CLEAR     66  56  68 W3        29.99R
6HR MIN TEMP:  66; 6HR MAX TEMP:  83;

MICHIGAN CITY* NOT AVBL
RENSSELAER*    NOT AVBL
VALPARAISO     CLEAR     64  57  78 W5        29.99S
$$

LMZ740>746-010700-
SOUTHERN LAKE MICHIGAN

STATION/POSITION TIME  SKY/WX   TEMP WIND        PRES    VSBY
                                AIR  DIR/SP/G
                 (UTC)          (F)  (DEG/KT/KT) (MB)    (MI)
HARRISON CRIB    0600            75  300/ 14/ 17   N/A
BURNHAM HARBOR   0600            74  320/  7/ 10   N/A
CALUMET HARBOR   0600            73  240/  3/  5   N/A
BURNS HARBOR     0500            75  300/  7/  9 1015.2S
MICHIGAN CITY    0600            75  280/ 14/ 16   N/A
$$

ABBREVIATIONS USED IN REMARKS
   TC - TEMPERATURE IN CELSIUS
  WCI - WIND CHILL INDEX
   HX - HEAT INDEX
  VSB - VISIBILITY
$$


USA.gov is the U.S. government's official web portal to all federal, state and local government web resources and services.